Location: Unspecified
(0.0000°N, 0.0000°E)
Time: 18:58:06
(UTC+00:00)

Vanguard 2 Rocket - All Passes

Search period start: 16 April 2014 00:00
Search period end: 26 April 2014 00:00
Orbit: 555 x 3337 km, 32.9° (Epoch: 15 April)

Date Brightness Start Highest point End Pass type
(mag) Time Alt. Az. Time Alt. Az. Time Alt. Az.
16 Apr - 00:00:00 15° SSE 23:59:45 15° SSE 00:04:04 10° SSE visible
16 Apr - 02:04:08 10° SSW 02:16:57 20° S 02:29:52 10° SE visible
16 Apr - 04:22:25 10° SW 04:40:12 37° SSE 04:53:38 10° E visible
16 Apr - 06:40:55 10° SW 06:59:18 81° SE 07:09:57 10° ENE daylight
16 Apr - 09:03:02 10° W 09:14:24 32° NW 09:21:31 10° NNE daylight
16 Apr - 18:12:21 10° NW 18:17:28 47° NE 18:26:01 10° ESE visible
16 Apr - 20:24:55 10° W 20:32:01 42° SSW 20:44:16 10° SE visible
16 Apr - 22:42:28 10° SW 22:50:57 20° SSW 23:02:24 10° SSE visible
17 Apr - 01:03:43 10° SSW 01:14:33 18° S 01:26:32 10° SE visible
17 Apr - 03:22:08 10° SSW 03:38:46 30° SSE 03:53:02 10° ESE visible
17 Apr - 05:39:57 10° SW 05:59:20 63° SSE 06:11:41 10° ENE visible
17 Apr - 08:00:33 10° WSW 08:15:50 51° NW 08:24:44 10° NE daylight
17 Apr - 17:15:55 10° NNW 17:19:48 24° NE 17:25:12 10° E daylight
17 Apr - 19:27:02 10° WNW 19:33:08 58° SSW 19:44:02 10° SE visible
17 Apr - 21:42:51 10° WSW 21:50:25 23° SSW 22:01:21 10° SSE visible
18 Apr - 00:03:25 10° SSW 00:12:23 17° S 00:22:59 10° SE visible
18 Apr - 02:22:09 10° SSW 02:36:54 25° SSE 02:51:12 10° ESE visible
18 Apr - 04:39:21 10° SW 04:58:45 50° SSE 05:12:42 10° ENE visible
18 Apr - 06:58:37 10° WSW 07:16:46 72° NW 07:27:23 10° NE daylight
18 Apr - 09:23:32 10° W 09:31:43 19° NW 09:37:35 10° N daylight
18 Apr - 18:29:34 10° NW 18:34:48 88° SW 18:43:59 10° SE visible
18 Apr - 20:43:52 10° WSW 20:50:33 27° SSW 21:00:52 10° SSE visible
18 Apr - 23:03:16 10° SW 23:10:43 16° S 23:19:58 10° SSE night (unlit)
19 Apr - 01:22:27 10° SSW 01:34:46 20° SSE 01:48:01 10° ESE visible
19 Apr - 03:39:10 10° SW 03:57:40 40° SSE 04:12:51 10° E visible
19 Apr - 05:57:14 10° SW 06:17:05 87° SE 06:29:30 10° NE daylight
19 Apr - 08:19:49 10° W 08:33:01 33° NW 08:41:23 10° NNE daylight
19 Apr - 17:32:30 10° NW 17:36:58 51° NE 17:44:00 10° ESE daylight
19 Apr - 19:45:25 10° W 19:51:17 33° SSW 20:00:51 10° SE visible
19 Apr - 22:03:22 10° SW 22:09:45 16° S 22:18:00 10° SSE visible
20 Apr - 00:22:59 10° SSW 00:32:38 17° S 00:43:45 10° SE visible
20 Apr - 02:39:23 10° SSW 02:56:10 32° SSE 03:11:52 10° E visible
20 Apr - 04:56:23 10° SW 05:16:47 69° SE 05:31:00 10° ENE visible
20 Apr - 07:17:02 10° WSW 07:34:00 50° NW 07:44:24 10° NNE daylight
20 Apr - 09:46:48 10° NW 09:49:28 11° NW 09:51:51 10° NNW daylight
20 Apr - 16:35:55 10° NNW 16:39:23 24° NE 16:43:52 10° E daylight
20 Apr - 18:47:25 10° WNW 18:52:34 45° SSW 19:01:11 10° SE visible
20 Apr - 21:03:50 10° SW 21:09:29 17° SSW 21:17:07 10° SSE visible
20 Apr - 23:23:44 10° SSW 23:30:47 14° S 23:39:09 10° SSE night (unlit)
21 Apr - 01:40:02 10° SSW 01:54:25 26° SSE 02:09:31 10° ESE visible
21 Apr - 03:56:05 10° SW 04:15:58 55° SSE 04:31:45 10° ENE visible
21 Apr - 06:15:00 10° WSW 06:34:29 69° NW 06:46:49 10° NE daylight
21 Apr - 08:40:25 10° W 08:50:26 21° NW 08:57:33 10° N daylight
21 Apr - 17:49:49 10° WNW 17:54:23 73° SSW 18:01:45 10° SE daylight
21 Apr - 20:04:45 10° WSW 20:09:51 20° SSW 20:17:05 10° SSE visible
21 Apr - 22:24:34 10° SSW 22:29:27 13° S 22:35:14 10° SSE visible
22 Apr - 00:41:06 10° SSW 00:52:34 20° SSE 01:05:40 10° ESE visible
22 Apr - 02:56:18 10° SW 03:14:45 44° SSE 03:31:33 10° E visible
22 Apr - 05:13:42 10° SW 05:34:23 88° NW 05:48:41 10° NE visible
22 Apr - 07:36:24 10° W 07:51:15 34° NW 08:01:01 10° NNE daylight
22 Apr - 16:52:34 10° NW 16:56:37 58° NE 17:02:25 10° ESE daylight
22 Apr - 19:06:06 10° WSW 19:10:46 24° SSW 19:17:40 10° SSE visible
22 Apr - 21:25:16 10° SSW 21:28:47 12° S 21:32:53 10° SSE visible
22 Apr - 23:42:37 10° SSW 23:50:49 16° SSE 00:00:31 10° SE visible
23 Apr - 01:57:03 10° SSW 02:13:20 34° SSE 02:30:09 10° E visible
23 Apr - 04:13:07 10° SW 04:33:46 74° SE 04:49:54 10° ENE visible
23 Apr - 06:33:29 10° WSW 06:51:43 49° NW 07:03:45 10° NNE daylight
23 Apr - 09:03:01 10° WNW 09:08:21 13° NW 09:12:47 10° N daylight
23 Apr - 15:55:42 10° NNW 15:59:02 25° NE 16:02:58 10° E daylight
23 Apr - 18:07:53 10° W 18:12:12 33° SSW 18:18:40 10° SE daylight
23 Apr - 20:25:43 10° SSW 20:28:46 12° S 20:32:21 10° S visible
23 Apr - 22:44:47 10° S 22:49:22 12° S 22:54:37 10° SSE night (unlit)
24 Apr - 00:58:17 10° SSW 01:11:51 26° SSE 01:27:18 10° ESE visible
24 Apr - 03:13:11 10° SW 03:32:47 59° SE 03:50:18 10° ENE visible
24 Apr - 05:31:32 10° WSW 05:51:43 66° NW 06:05:54 10° NE visible
24 Apr - 07:57:05 10° W 08:08:50 23° NW 08:17:17 10° NNE daylight
24 Apr - 14:59:51 10° NNE 15:01:14 12° NNE 15:02:38 10° NE daylight
24 Apr - 17:10:01 10° WNW 17:14:05 56° SSW 17:19:54 10° SE daylight
24 Apr - 19:26:12 10° SW 19:29:19 13° SSW 19:33:10 10° SSE visible
25 Apr - 00:00:04 10° SSW 00:10:24 20° SSE 00:22:51 10° ESE visible
25 Apr - 02:13:51 10° SW 02:31:36 46° SSE 02:49:43 10° E visible
25 Apr - 04:30:29 10° SW 04:51:15 84° NW 05:07:27 10° NE visible
25 Apr - 06:52:57 10° W 07:09:06 34° NW 07:20:22 10° NNE daylight
25 Apr - 16:12:28 10° NW 16:16:21 71° NE 16:21:13 10° ESE daylight
25 Apr - 18:27:04 10° WSW 18:30:23 17° SSW 18:34:40 10° SSE visible
25 Apr - 23:02:37 10° S 23:09:07 14° SSE 23:16:51 10° SE night (unlit)
